{"data":{"norad_id":66138,"intl_designator":"2025-237AA","name":"STARLINK-35623","alt_names":[],"object_type":"PAYLOAD","status":"ACTIVE","operator":null,"country":"US","launch_date":"2025-10-22","launch_site_code":"AFWTR","launch_vehicle":null,"mission":null,"orbit_class":"UNKNOWN","rcs_meters":null,"size_class":null,"mass_kg":null,"dimensions":null,"purposes":["comms"],"wikipedia_slug":null,"has_3d_model":false,"image_url":null,"decayed_at":null,"tle_current":{"epoch":"2026-09-20T13:23:41.107488Z","epoch_age_seconds":95396,"freshness":"FRESH","line1":"1 66138U 25237AA  26263.55811467  .00022753  00000+0  68215-3 0  9992","line2":"2 66138  53.1580 213.2068 0000512  39.1600 320.9439 15.34415391 52460","mean_motion":15.34415391,"eccentricity":5.12e-5,"inclination_deg":53.158,"raan_deg":213.2068,"arg_perigee_deg":39.16,"mean_anomaly_deg":320.9439,"bstar":0.00068215,"rev_number":5246,"period_min":93.846816738558,"perigee_km":462.30724661581,"apogee_km":463.00774397213,"semimajor_km":6840.794495294,"source":"CELESTRAK","updated_at":"2026-09-21T09:00:35.811242Z"}}}